| time (UTC) | temp F | wind direction | speed MPH | gust MPH | rain 1hr in | rain 24hr in | rain mn in | humidity % | barometer mb |
| 20260504190011 | 48 | 211 | 26.0 | 35.0 | 0.00 | 0.45 | 0.25 | 68 | 1000.1 |
| 20260504184512 | 48 | 223 | 23.0 | 34.0 | 0.00 | 0.48 | 0.25 | 72 | 999.9 |
| 20260504183111 | 48 | 241 | 25.0 | 37.0 | 0.00 | 0.48 | 0.25 | 72 | 999.8 |
| 20260504181501 | 48 | 241 | 26.0 | 40.0 | 0.00 | 0.48 | 0.25 | 73 | 999.5 |
| 20260504180059 | 47 | 225 | 31.0 | 42.0 | 0.00 | 0.48 | 0.25 | 74 | 999.4 |
| 20260504174606 | 47 | 236 | 31.0 | 43.0 | 0.00 | 0.48 | 0.25 | 76 | 999.2 |
| 20260504173057 | 45 | 241 | 26.0 | 41.0 | 0.00 | 0.48 | 0.25 | 79 | 999.0 |
| 20260504171550 | 45 | 223 | 29.0 | 39.0 | 0.00 | 0.48 | 0.25 | 80 | 998.8 |
| 20260504081513 | 37 | 214 | 24.0 | 38.0 | 0.00 | 0.37 | 0.14 | 94 | 980.0 |
| 20260504050012 | 39 | 318 | 9.0 | 13.0 | 0.02 | 0.24 | 0.02 | 91 | 975.4 |
| 20260504044517 | 39 | 340 | 8.0 | 11.0 | 0.01 | 0.24 | 0.01 | 90 | 975.7 |
| 20260504043102 | 40 | 350 | 6.0 | 9.0 | 0.00 | 0.23 | 0.00 | 89 | 975.7 |
| 20260504041554 | 40 | 2 | 6.0 | 9.0 | 0.00 | 0.23 | 0.00 | 88 | 975.9 |
| 20260504040100 | 41 | 40 | 5.0 | 9.0 | 0.00 | 0.23 | 0.00 | 87 | 976.1 |
| 20260504034555 | 41 | 58 | 4.0 | 7.0 | 0.00 | 0.23 | 0.00 | 87 | 976.4 |
| 20260504033031 | 41 | 49 | 7.0 | 14.0 | 0.00 | 0.23 | 0.00 | 87 | 976.6 |
| 20260504031525 | 41 | 102 | 8.0 | 17.0 | 0.00 | 0.23 | 0.00 | 87 | 977.0 |
| 20260504030035 | 42 | 86 | 11.0 | 21.0 | 0.00 | 0.23 | 0.00 | 87 | 977.5 |
| 20260504024514 | 42 | 127 | 7.0 | 18.0 | 0.00 | 0.23 | 0.23 | 86 | 978.0 |
| 20260504023008 | 43 | 88 | 8.0 | 17.0 | 0.00 | 0.23 | 0.23 | 85 | 978.4 |
| 20260504021505 | 43 | 56 | 8.0 | 19.0 | 0.00 | 0.23 | 0.23 | 85 | 978.6 |
| 20260504014557 | 43 | 63 | 12.0 | 27.0 | 0.00 | 0.23 | 0.23 | 85 | 979.6 |
| 20260504013108 | 43 | 145 | 15.0 | 30.0 | 0.00 | 0.23 | 0.23 | 85 | 980.0 |
| 20260504011556 | 42 | 98 | 20.0 | 38.0 | 0.00 | 0.23 | 0.23 | 85 | 979.6 |
| 20260504010059 | 43 | 41 | 24.0 | 44.0 | 0.00 | 0.23 | 0.23 | 85 | 980.4 |
| 20260504004559 | 43 | 66 | 21.0 | 36.0 | 0.01 | 0.23 | 0.23 | 85 | 981.2 |
| 20260504003039 | 43 | 114 | 14.0 | 35.0 | 0.01 | 0.23 | 0.23 | 85 | 982.6 |
| 20260504001535 | 44 | 92 | 17.0 | 39.0 | 0.02 | 0.23 | 0.23 | 85 | 982.9 |
| 20260504000032 | 43 | 47 | 13.0 | 23.0 | 0.03 | 0.23 | 0.23 | 86 | 984.0 |
| 20260503234539 | 43 | 67 | 14.0 | 37.0 | 0.03 | 0.22 | 0.22 | 85 | 984.9 |
| 20260503233026 | 42 | 59 | 12.0 | 22.0 | 0.03 | 0.22 | 0.22 | 86 | 986.1 |
| 20260503231523 | 43 | 73 | 9.0 | 17.0 | 0.02 | 0.20 | 0.20 | 86 | 987.9 |
| 20260503230019 | 42 | 127 | 9.0 | 23.0 | 0.02 | 0.20 | 0.20 | 87 | 989.1 |
| 20260503224516 | 42 | 47 | 9.0 | 15.0 | 0.03 | 0.19 | 0.19 | 87 | 989.8 |
| 20260503223013 | 42 | 87 | 11.0 | 24.0 | 0.05 | 0.19 | 0.19 | 87 | 991.1 |
| 20260503221510 | 42 | 44 | 13.0 | 21.0 | 0.05 | 0.19 | 0.19 | 88 | 992.1 |
| 20260503220007 | 42 | 86 | 10.0 | 15.0 | 0.04 | 0.17 | 0.17 | 89 | 993.0 |
| 20260503214506 | 42 | 52 | 7.0 | 14.0 | 0.02 | 0.15 | 0.15 | 88 | 993.8 |
| 20260503213002 | 42 | 24 | 9.0 | 19.0 | 0.02 | 0.14 | 0.14 | 87 | 993.9 |
| 20260503211500 | 43 | 5 | 14.0 | 23.0 | 0.04 | 0.14 | 0.14 | 87 | 994.7 |
| 20260503210112 | 43 | 37 | 12.0 | 19.0 | 0.05 | 0.13 | 0.13 | 90 | 994.9 |
| 20260503204608 | 42 | 27 | 9.0 | 14.0 | 0.06 | 0.13 | 0.13 | 90 | 995.2 |
| 20260503203103 | 42 | 7 | 12.0 | 16.0 | 0.09 | 0.12 | 0.12 | 89 | 995.6 |
| 20260503201553 | 42 | 23 | 12.0 | 18.0 | 0.07 | 0.10 | 0.10 | 88 | 996.4 |
| 20260503200054 | 42 | 17 | 12.0 | 17.0 | 0.06 | 0.09 | 0.09 | 87 | 997.4 |
| 20260503194547 | 43 | 25 | 10.0 | 17.0 | 0.05 | 0.06 | 0.06 | 84 | 998.4 |
| 20260503193052 | 43 | 41 | 14.0 | 22.0 | 0.03 | 0.03 | 0.03 | 82 | 998.4 |
| 20260503191542 | 43 | 33 | 14.0 | 21.0 | 0.03 | 0.03 | 0.03 | 80 | 999.3 |